Flag for Brazil Weather past 2 weeks in Passo Fundo, Rio Grande do Sul, Brazil

Now
79 °F

Passing clouds.


Feels Like: 80 °F
Forecast: N/A
Wind: 7 mph from East

Location: Porto Alegre Aero-Porto

Current Time: Apr 26, 2015 at 6:11:32 PM

Latest Report: Apr 26, 2015 at 5:00 PM


Visibility: N/A

Pressure: 30.07 "Hg

Humidity: 48%

Dew point: 57 °F

Location of Passo FundoLocation

Historic Weather in Passo Fundo — Graph

°F

Passo Fundo temperature yesterday

Maximum temperature yesterday: 77 °F (at 2:00 PM)
Minimum temperature yesterday: 61 °F (at 11:00 PM)
Average temperature yesterday: 68 °F

Past Weeks' High & Low Weather Summary

 TemperatureHumidityPressure
High88 °F (Apr 14, 4:00 PM)100% (Apr 12, 4:00 AM)30.21 "Hg (Apr 12, 4:00 AM)
Low55 °F (Apr 19, 5:00 AM)24% (Apr 12, 2:00 PM)29.77 "Hg (Apr 20, 3:00 PM)
Average70 °F82%30.01 "Hg
* Reported Apr 11 4:00 PM — Apr 26 4:00 PM, Passo Fundo, Weather by CustomWeather, © 2015

Note: Actual official high and low records may vary slightly from our data, if they occured in-between our weather recording intervals... More about our weather records

Advertising

Passo Fundo weather history for previous 24 hours

 ConditionsComfort  
Time TempWeatherWind HumidityBarometerVisibility
4:00 PM
Sun, Apr 26
79 °FSunny.3 mph45%30.07 "Hg10 mi
3:00 PM79 °FSunny.No wind48%30.07 "Hg10 mi
2:00 PM77 °FPassing clouds.5 mph51%30.09 "HgN/A
1:00 PM75 °FSunny.5 mph61%30.12 "Hg10 mi
12:00 PM75 °FSunny.8 mph61%30.15 "Hg10 mi
11:00 AM72 °FSunny.5 mph69%30.15 "Hg10 mi
10:00 AM66 °FSunny.2 mph83%30.18 "Hg10 mi
9:00 AM63 °FClear.1 mph94%30.15 "Hg5 mi
8:00 AM59 °FClear.No wind100%30.15 "Hg4 mi
7:00 AM55 °FSunny.No wind94%30.12 "Hg10 mi
6:00 AM59 °FSunny.3 mph88%30.12 "Hg10 mi
5:00 AM55 °FClear.2 mph94%30.09 "Hg10 mi
4:00 AM57 °FClear.No wind94%30.09 "Hg10 mi
3:00 AM57 °FClear.5 mph94%30.09 "Hg4 mi
2:00 AM55 °FClear.3 mph100%30.12 "Hg4 mi
1:00 AM59 °FClear.No wind88%30.12 "Hg10 mi
12:00 AM59 °FClear.No wind88%30.12 "Hg10 mi
11:00 PM
Sat, Apr 25
61 °FClear.5 mph83%30.15 "Hg10 mi
10:00 PM63 °FClear.3 mph77%30.15 "Hg10 mi
9:00 PM63 °FPassing clouds.6 mph83%30.15 "HgN/A
8:00 PM66 °FClear.8 mph78%30.15 "Hg10 mi
7:00 PM68 °FClear.6 mph78%30.12 "Hg10 mi
6:00 PM73 °FPassing clouds.5 mph61%30.12 "HgN/A
Weather by CustomWeather, © 2015

See weather overviewHow to use our weather pages